Regional Weather Roundup
Issued by NWS

Home | Current Version | Previous Version | Text Only | Print | Product List | Glossary On
Versions: 1 2 3 4 5 6 7 8 9 10 11 12 13 14 15 16 17 18 19 20 21 22 23 24 25 26 27 28 29 30 31 32 33 34 35 36 37 38 39 40 41 42 43 44 45 46 47 48 49 50
000
ASUS43 KLSX 231359
RWRMO

WEATHER SUMMARY FOR MISSOURI
NATIONAL WEATHER SERVICE SPRINGFIELD MO
900 AM CDT SUN JUL 23 2017

NOTE: "FAIR" INDICATES FEW OR NO CLOUDS BELOW 12,000 FEET WITH NO
       SIGNIFICANT WEATHER AND/OR OBSTRUCTIONS TO VISIBILITY.
       CURRENT SKY AND/OR WEATHER CONDITIONS ARE NOT AVAILABLE FOR
       CHILLICOTHE AND FARMINGTON.

MOZ001>031-035>038-043-044-053-054-231500-
...NORTHERN AND WESTERN MISSOURI...

CITY           SKY/WX    TMP DP  RH WIND       PRES   REMARKS
KANSAS CTY INT PTSUNNY   78  71  79 W7        29.94R
KANSAS C DTWN  PTSUNNY   79  72  79 VRB3      29.92S
LEE`S SUMMIT   PTSUNNY   75  70  84 SW7       29.94S
ST JOSEPH      SUNNY     79  73  82 NW3       29.94S
CHILLICOTHE      N/A     79  74  84 VRB3      29.93R
KIRKSVILLE     SUNNY     80  73  79 NW9       29.92R

$$
MOZ066>068-077>081-088>096-101>105-231500-
...SOUTHWEST MISSOURI...

CITY           SKY/WX    TMP DP  RH WIND       PRES   REMARKS
SPRINGFIELD    PTSUNNY   79  68  69 S5        29.98R
JOPLIN         CLOUDY    77  70  79 CALM      29.97F
BRANSON        PTSUNNY   82  68  61 SE6       29.99R

$$
MOZ032>034-039>042-045>050-055>058-069>072-231500-
...CENTRAL MISSOURI...

CITY           SKY/WX    TMP DP  RH WIND       PRES   REMARKS
COLUMBIA       CLOUDY    75  69  81 SW7       29.93R
JEFFERSON CITY CLOUDY    74  71  91 S6        29.93R
ROLLA          PTSUNNY   73  68  84 SW8       29.96R
SEDALIA        CLOUDY    76  72  87 SW7       29.95F
OSAGE BEACH    MOSUNNY   76  67  73 SW3       29.96R

$$
MOZ051-052-059>065-231500-
...EAST CENTRAL MISSOURI...

CITY           SKY/WX    TMP DP  RH WIND       PRES   REMARKS
ST LOUIS INTL  PTSUNNY   78  67  68 W13       29.90R
SPIRIT OF STL  PTSUNNY   75  70  84 W7        29.89R
ST CHARLES     PTSUNNY   75  66  73 SW9       29.88R

$$
MOZ072>076-082>087-097>100-106>115-231500-
...SOUTH CENTRAL AND SOUTHEAST MISSOURI...

CITY           SKY/WX    TMP DP  RH WIND       PRES   REMARKS
CAPE GIRARDEAU CLOUDY    82  65  56 E6        29.90R
FARMINGTON     CLOUDY    78  67  68 W7        29.95R
POPLAR BLUFF   MOSUNNY   84  74  71 N7        29.91R HX  91
WEST PLAINS    PTSUNNY   80  65  59 CALM      29.97S

$$




USA.gov is the U.S. government's official web portal to all federal, state and local government web resources and services.